sat.trackr.live / text

‹ back to catalog

YAOGAN-30 09A

NORAD 48423 · 2021-039A

PAYLOAD ACTIVE UNKNOWN

§ Identity

Operator
Country
PRC
Launch date
2021-05-06
Launch site
XICLF
Launch vehicle
Mass (kg)
RCS (m²)

External: N2YO · Heavens-Above · Gunter

§ Orbital elements

Epoch: 2026-09-21T22:54:15.784704Z

Period
95.80 min
Inclination
34.9965°
Eccentricity
0.0003831
Mean motion
15.03060089 rev/d
Perigee alt
554.8 km
Apogee alt
560.1 km
Semi-major
6,935.6 km
B*
1.1584e-4
RAAN
161.6805°
Arg perigee
180.2975°
Mean anomaly
179.7731°
Rev number
29,411

§ Raw data

YAOGAN-30 09A1 48423U 21039A   26264.95434936  .00001564  00000+0  11584-3 0  99962 48423  34.9965 161.6805 0003831 180.2975 179.7731 15.03060089294117

JSON: /api/v1/satellites/48423 · /tle

For live sub-satellite position, see the globe view (requires WebGL).

§ Visibility from observer

Set your observer location to see the next 7 days of passes ≥ 10°. The values pass through the URL so the page stays shareable.

No JS? Fill the form by hand. The geolocation button needs JavaScript.